SL-8 DEB, 1392

Orbit data source: Space-Track

SL-8 DEB, 1392 is space debris in LEO originally from a launch on Mon, 15 Mar 1965 UTC launched from the Tyuratam Missile And Space Complex (TTMTR). Debris objects in space refer to the collection of defunct objects orbiting the Earth. Examples of debris include non-operational satellites, rocket bodies, and fragments generated from explosions, collisions, or faulty payload assembly.

Loading next visibility...
Identifier
1392, 1965-020AH
Orbit
LEO
Last TLE update
23 hours ago
Origin
Manufacturer
Unknown
Mission
Spacecraft
Bus & Motor
Unknown
Mass
Unknown
Launch date (UTC)
1965-03-15 (60 years ago)
Launch vehicle
Unknown
Launch site
Tyuratam Missile And Space Complex (TTMTR)
Object type
Payload
Rocket body
Debris
Shape & HBR
Unknown
Radar Cross Section
Medium (>0.1 m² and <1 m²)

Expand to show TLE details & history

TLE from 23 hours ago
0 SL-8 DEB
1 01392U 65020AH  25128.27709609  .00020004  00000-0  13408-2 0  9990
2 01392  55.8647 116.3446 0195724 269.7658  88.0932 14.92581148 35188
Epoch: 2025-05-08T06:39Z
Definitive object data (Epoch: 2025-05-08T06:39:01.102Z)
Latitude
-0.00003°
Longitude
150.24008°
Altitude
589.188 km
Speed
7.568 km/s
True Right ascension
07h 45m 22s
True Declination
0° 00' 00"
Sunlit
Object was in daylight at TLE epoch
Visualization TLE readout
Latitude
16.38924°
Longitude
157.81405°
Altitude
630.382 km
Speed
7.524 km/s
Apparent Right ascension
05h 34m 12s
Apparent Declination
-15° 56' 54"
Sunlit
Object is in daylight
Visualization observer readout
Local Sidereal Time
13:23:07
Azimuth
274.784° WNW
Elevation
-30.913°
Doppler factor
1
Orbital elements
Apogee altitude
726.098 km
Perigee altitude
453.342 km
Semi-major axis
6,967.857 km
Eccentricity
0.0195724
Inclination
55.8647°
RAAN
116.3446°
Arg. of periapsis
269.7658°
True anomaly
90.33604°
Mean anomaly
88.0932°
Eccentric anomaly
89.21451°
Mean motion
3.73159 °/min
BSTAR
0.0013408
Orbital period
96.47 mins
Loading maneuver chart data...
Loading SW <> Apogee altitude chart data...
Loading historical data...
Loading historical data...
Loading historical data...
Loading historical data...
Loading historical data...
Loading historical data...
Loading historical data...

SL-8 DEB Visibility forecast

Observer location: undefined°, undefined°

Span
Click to sort rows by Start time (UTC) header in descending order
Start Az.
Max El. time (UTC)
Max El. Az.
Max El.
End time (UTC)
End Az.
4 mins2025-05-09 05:32:29.379Z338.201° N2025-05-09 05:34:29.379Z1.874° NNE12.742°2025-05-09 05:36:29.379Z25.899° NE
5 mins2025-05-09 07:14:29.379Z352.525° N2025-05-09 07:16:29.379Z24.115° NE21.18°2025-05-09 07:19:29.379Z68.373° E
8 mins2025-05-09 08:53:29.379Z315.527° NNW2025-05-09 08:57:29.379Z49.211° ENE44.94°2025-05-09 09:01:29.379Z133.882° SE
4 mins2025-05-09 10:35:29.379Z262.353° W2025-05-09 10:37:29.379Z235.586° WSW13.802°2025-05-09 10:39:29.379Z210.398° SW
7 mins2025-05-10 00:35:29.379Z188.683° SSW2025-05-10 00:38:29.379Z132.05° SE32.812°2025-05-10 00:42:29.379Z62.261° ENE
8 mins2025-05-10 02:15:29.379Z263.818° W2025-05-10 02:18:29.379Z312.357° NW30.92°2025-05-10 02:23:29.379Z32.907° NE
|